[[{"header":{"parameterUnit":"m.s-1","parameterCategory":1,"la1":30.2991,"la2":30.254,"lo1":-89.0895,"lo2":-89.0444,"dx":0.0017,"dy":0.0017,"nx":28,"ny":28,"refTime":"2023-02-06T15:00:00:Z","depth":0,"parameterNumber":2,"parameterNumberName":"U-component_of_WINDS"},"data":[0,0,0,0,0,0,0,0,0,0,0,0,0,0,0,0,0,0,0,0,0,0,0,0,0,0,0,0,0,0,0,0,0,0,0,0,0,0,0,0,0,0,0,0,0,0,0,0,0,0,0,0,0,0,0,0,0,0,-4.7569,-4.7569,0,-4.7641,-4.7642,-4.7643,-4.7612,-4.7611,-4.7609,-4.7607,-4.7679,-4.7683,-4.7686,0,0,0,0,0,0,0,0,0,0,0,0,0,-4.7401,-4.7404,-4.7568,-4.7569,-4.757,-4.7641,-4.7642,-4.7643,-4.7613,-4.7611,-4.7609,-4.7607,-4.7678,-4.7682,-4.7687,0,0,0,0,0,0,0,0,0,0,0,0,0,-4.7474,-4.7405,-4.7568,-4.7564,-4.7564,-4.7641,-4.7642,-4.7644,-4.7613,-4.7611,-4.7608,-4.7606,-4.7677,-4.7682,-4.7687,-4.7772,0,0,-4.7703,-4.7706,0,0,0,0,0,0,0,0,-4.7469,-4.748,-4.7563,-4.7564,-4.7565,-4.7615,-4.761,-4.7687,-4.7614,-4.7594,-4.7607,-4.7604,-4.766,-4.7667,-4.7686,-4.7776,-4.7779,-4.7704,-4.7707,-4.7709,-4.7711,0,0,0,0,0,0,0,-4.7464,-4.7476,-4.7597,-4.7565,-4.7565,-4.7557,-4.7565,-4.7624,-4.7641,-4.7596,-4.7594,-4.7603,-4.766,-4.7681,-4.7687,-4.778,-4.7704,-4.7709,-4.7712,-4.7714,-4.7943,-4.7946,0,0,0,0,0,0,-4.746,-4.7472,-4.7595,-4.7599,-4.751,-4.7562,-4.7571,-4.7602,-4.764,-4.7644,-4.7605,-4.7601,-4.7673,-4.7681,-4.769,-4.7791,-4.7709,-4.7714,-4.7717,-4.794,-4.7944,-4.7947,0,0,0,0,0,0,-4.7456,-4.7471,-4.7592,-4.7535,-4.755,-4.7568,-4.7603,-4.7604,-4.7625,-4.7647,-4.765,-4.7624,-4.7671,-4.7682,-4.7752,-4.7793,-4.7717,-4.7722,-4.7937,-4.7941,-4.7945,-4.7995,0,0,0,0,0,0,-4.7451,-4.747,-4.7503,-4.7536,-4.7553,-4.7654,-4.7606,-4.7608,-4.7635,-4.7631,-4.7665,-4.7668,-4.767,-4.7744,-4.7758,-4.7799,-4.7726,-4.7933,-4.7939,-4.7944,-4.799,-4.8001,-4.801,0,0,0,0,0,-4.7446,-4.7513,-4.7504,-4.7519,-4.7595,-4.7656,-4.7666,-4.7667,-4.7638,-4.7671,-4.7685,-4.7667,-4.7787,-4.7752,-4.7766,-4.781,-4.7931,-4.7937,-4.7944,-4.7985,-4.7999,-4.801,0,0,0,0,0,0,-4.7482,-4.7517,-4.7508,-4.7589,-4.762,-4.7651,-4.7692,-4.7681,-4.772,-4.7714,-4.7713,-4.7721,-4.7794,-4.7809,-4.7769,-4.7895,-4.7855,-4.7864,-4.7881,-4.7894,-4.7904,-4.7898,-4.773,0,0,0,0,0,-4.75,-4.7548,-4.7576,-4.7644,-4.766,-4.7674,-4.77,-4.7699,-4.7731,-4.7743,-4.7763,-4.7794,-4.7838,-4.7867,-4.791,-4.7993,-4.8,-4.8031,-4.8041,-4.8049,-4.8056,-4.8101,-4.8115,-4.7968,-4.7968,-4.7968,0,0,-4.7536,-4.7561,-4.7591,-4.7652,-4.7676,-4.7724,-4.7685,-4.7738,-4.7773,-4.7751,-4.7818,-4.7834,-4.7868,-4.7945,-4.798,-4.796,-4.8099,-4.8057,-4.8063,-4.8067,-4.8109,-4.8123,-4.8135,-4.7973,-4.7972,-4.7971,0,0,-4.7627,-4.7652,-4.7711,-4.7736,-4.7774,-4.7783,-4.7797,-4.7831,-4.784,-4.7908,-4.7892,-4.7935,-4.8012,-4.8037,-4.806,-4.8163,-4.8147,-4.8177,-4.8228,-4.8272,-4.8283,-4.8293,-4.8328,-4.8341,-4.8185,-4.8185,-4.8185,0,-4.7667,-4.774,-4.7743,-4.7797,-4.7824,-4.7808,-4.7868,-4.7892,-4.7941,-4.796,-4.7938,-4.8034,-4.8057,-4.8139,-4.8164,-4.8184,-4.8199,-4.8171,-4.8281,-4.8292,-4.8301,-4.8335,-4.8348,-4.8188,-4.8188,-4.8187,-4.8187,0,-4.7787,-4.7838,-4.7882,-4.793,-4.7963,-4.802,-4.803,-4.8062,-4.8059,-4.807,-4.8139,-4.8166,-4.8213,-4.8233,-4.823,-4.8315,-4.8302,-4.8281,-4.824,-4.8318,-4.835,-4.8363,-4.8193,-4.8191,-4.819,-4.819,0,0,-4.79,-4.7951,-4.7967,-4.7989,-4.803,-4.8069,-4.8126,-4.8173,-4.82,-4.8235,-4.8282,-4.8348,-4.833,-4.8356,-4.8355,-4.8394,-4.8472,-4.8368,-4.8369,-4.8385,-4.8567,-4.8581,-4.8596,-4.8464,-4.8466,-4.8468,-4.8564,0,-4.7992,-4.8092,-4.8097,-4.8187,-4.8234,-4.822,-4.8269,-4.83,-4.8312,-4.8354,-4.8367,-4.8414,-4.8386,-4.8402,-4.844,-4.8455,-4.8509,-4.8448,-4.8505,-4.8507,-4.8495,-4.8613,-4.8627,-4.8716,-4.8576,-4.8578,-4.858,0,-4.8112,-4.8152,-4.8248,-4.8283,-4.8303,-4.8347,-4.8391,-4.8431,-4.8465,-4.8472,-4.8502,-4.8497,-4.8554,-4.8513,-4.8592,-4.8551,-4.8575,-4.8586,-4.859,-4.8593,-4.8546,-4.8617,-4.8744,-4.8757,-4.86,-4.8598,-4.8597,0,-4.8183,-4.8261,-4.8328,-4.8348,-4.8391,-4.8422,-4.8441,-4.8473,-4.8501,-4.854,-4.8558,-4.8603,-4.8627,-4.8662,-4.8669,-4.8639,-4.8747,-4.8707,-4.8753,-4.8752,-4.8773,-4.8772,-4.8904,-4.8793,-4.8793,-4.8793,-4.8792,0,-4.8285,-4.8343,-4.836,-4.8401,-4.8466,-4.8472,-4.8536,-4.8553,-4.8582,-4.8625,-4.8617,-4.8658,-4.8665,-4.8708,-4.8714,-4.8777,-4.8788,-4.8794,-4.8795,-4.8794,-4.8793,-4.8808,-4.8801,-4.8796,-4.8795,-4.8795,-4.8794,0,-4.8373,-4.8388,-4.8459,-4.8495,-4.8506,-4.8552,-4.8582,-4.8621,-4.8634,-4.8689,-4.8702,-4.8721,-4.8771,-4.8782,-4.8841,-4.8845,-4.892,-4.8915,-4.8908,-4.8907,-4.8951,-4.8946,-4.9096,-4.9115,-4.8994,-4.8995,-4.8996,0,-4.8436,-4.848,-4.8522,-4.8551,-4.8572,-4.8619,-4.8648,-4.8656,-4.8687,-4.873,-4.8764,-4.8813,-4.8852,-4.8932,-4.8951,-4.8996,-4.8991,-4.9041,-4.8998,-4.8995,-4.899,-4.8986,-4.899,-4.9048,-4.9049,-4.905,-4.9051,0,-4.8544,-4.855,-4.8593,-4.864,-4.8675,-4.8712,-4.8746,-4.8771,-4.8783,-4.8818,-4.887,-4.89,-4.8961,-4.901,-4.9055,-4.9074,-4.9065,-4.9065,-4.9078,-4.9076,-4.9069,-4.9072,-4.8928,-4.9061,-4.906,-4.9059,-4.9059,-4.9058,-4.8621,-4.866,-4.8695,-4.8744,-4.8771,-4.8804,-4.8843,-4.8861,-4.8904,-4.8955,-4.8957,-4.9013,-4.9047,-4.9107,-4.9129,-4.9172,-4.9157,-4.9175,-4.918,-4.9183,-4.9187,-4.9065,-4.9181,-4.9181,-4.918,-4.918,-4.918,0,-4.8727,-4.875,-4.8795,-4.8845,-4.8883,-4.8873,-4.8911,-4.8944,-4.8993,-4.9026,-4.9066,-4.9125,-4.9172,-4.9196,-4.9243,-4.9273,-4.9269,-4.9284,-4.9281,-4.9285,-4.9199,-4.9182,-4.9286,-4.9286,-4.9286,-4.9286,-4.9286,-4.9286,-4.8787,-4.8853,-4.8863,-4.8942,-4.8964,-4.9019,-4.9042,-4.9072,-4.9098,-4.9165,-4.9205,-4.922,-4.925,-4.9299,-4.9342,-4.9348,-4.9364,-4.9381,-4.9385,-4.9302,-4.9291,-4.9281,-4.9265,-4.9385,-4.9386,-4.9467,-4.9468,-4.9469]},{"header":{"parameterUnit":"m.s-1","parameterCategory":1,"la1":30.2991,"la2":30.254,"lo1":-89.0895,"lo2":-89.0444,"dx":0.0017,"dy":0.0017,"nx":28,"ny":28,"refTime":"2023-02-06T15:00:00:Z","depth":0,"parameterNumber":3,"parameterNumberName":"V-component_of_WINDS"},"data":[0,0,0,0,0,0,0,0,0,0,0,0,0,0,0,0,0,0,0,0,0,0,0,0,0,0,0,0,0,0,0,0,0,0,0,0,0,0,0,0,0,0,0,0,0,0,0,0,0,0,0,0,0,0,0,0,0,0,2.3596,2.3596,0,2.3625,2.3625,2.3625,2.363,2.363,2.363,2.363,2.3655,2.3656,2.3656,0,0,0,0,0,0,0,0,0,0,0,0,0,2.3543,2.3544,2.3596,2.3596,2.3597,2.3624,2.3625,2.3625,2.363,2.363,2.363,2.363,2.3654,2.3655,2.3657,0,0,0,0,0,0,0,0,0,0,0,0,0,2.3568,2.3545,2.3596,2.3603,2.3604,2.3624,2.3625,2.3625,2.363,2.363,2.363,2.3629,2.3654,2.3655,2.3657,2.3671,0,0,2.3661,2.3661,0,0,0,0,0,0,0,0,2.3567,2.357,2.3601,2.3602,2.3603,2.3624,2.3615,2.3641,2.3631,2.362,2.363,2.3629,2.3644,2.3646,2.3652,2.3672,2.3674,2.3661,2.3662,2.3662,2.3663,0,0,0,0,0,0,0,2.3565,2.3569,2.3607,2.3602,2.3603,2.3604,2.3607,2.362,2.3634,2.3621,2.3622,2.3625,2.3645,2.3651,2.3653,2.3674,2.3661,2.3662,2.3663,2.3663,2.3709,2.371,0,0,0,0,0,0,2.3563,2.3568,2.3606,2.3608,2.3584,2.3605,2.3608,2.3617,2.3634,2.3636,2.3625,2.3625,2.3649,2.3651,2.3654,2.3674,2.3662,2.3663,2.3664,2.3709,2.3709,2.371,0,0,0,0,0,0,2.3562,2.3566,2.3605,2.3588,2.3593,2.3606,2.3616,2.3618,2.3625,2.3637,2.3639,2.363,2.3649,2.3652,2.3668,2.3674,2.3664,2.3665,2.3708,2.3709,2.3709,2.3712,0,0,0,0,0,0,2.356,2.3566,2.3572,2.3588,2.3594,2.3619,2.3617,2.3619,2.3627,2.3627,2.3641,2.3643,2.3649,2.3666,2.3669,2.3676,2.3666,2.3708,2.3708,2.3709,2.3711,2.3713,2.3714,0,0,0,0,0,2.3558,2.357,2.3572,2.3577,2.3602,2.362,2.3623,2.363,2.3628,2.3634,2.3642,2.3643,2.3673,2.3667,2.3671,2.3678,2.3707,2.3708,2.3709,2.3711,2.3712,2.3714,0,0,0,0,0,0,2.3552,2.3572,2.3575,2.3593,2.3605,2.362,2.3628,2.3631,2.3643,2.3643,2.365,2.3653,2.3669,2.3675,2.3668,2.3694,2.369,2.3692,2.369,2.3691,2.3693,2.3691,2.3667,0,0,0,0,0,2.3553,2.3567,2.3583,2.3597,2.3604,2.3615,2.3623,2.3628,2.364,2.3644,2.3654,2.3664,2.3677,2.3684,2.3696,2.3712,2.3716,2.3719,2.372,2.3721,2.3723,2.3733,2.3736,2.3713,2.3713,2.3713,0,0,2.3555,2.3568,2.3575,2.3597,2.3606,2.362,2.3619,2.3633,2.3643,2.3646,2.3662,2.3669,2.3682,2.3698,2.3706,2.3704,2.373,2.3723,2.3723,2.3724,2.3735,2.3737,2.3739,2.3714,2.3713,2.3713,0,0,2.3565,2.3576,2.359,2.3601,2.3617,2.3625,2.3628,2.3644,2.3649,2.3666,2.3669,2.3681,2.3701,2.371,2.3718,2.3734,2.3735,2.3737,2.3743,2.3754,2.3755,2.3757,2.3764,2.3766,2.3738,2.3738,2.3738,0,2.3565,2.3587,2.3596,2.3611,2.362,2.3626,2.364,2.3649,2.3667,2.3674,2.3671,2.3699,2.3707,2.3727,2.3731,2.3736,2.3741,2.3736,2.3755,2.3756,2.3758,2.3765,2.3767,2.3739,2.3739,2.3739,2.3739,0,2.3586,2.3601,2.361,2.363,2.3641,2.3655,2.3666,2.3675,2.368,2.3688,2.3705,2.3716,2.3731,2.3735,2.3739,2.3756,2.3754,2.3753,2.3749,2.376,2.3767,2.3769,2.3739,2.3739,2.3739,2.3739,0,0,2.3592,2.362,2.3623,2.3633,2.3652,2.3663,2.3677,2.3694,2.3702,2.3714,2.3727,2.3745,2.3745,2.3753,2.3758,2.3767,2.378,2.3765,2.3765,2.3768,2.3801,2.3803,2.3806,2.3781,2.3782,2.3782,2.3801,0,2.3606,2.3634,2.3644,2.3667,2.3681,2.3688,2.37,2.3713,2.3721,2.3734,2.3742,2.3756,2.3754,2.3759,2.3768,2.3777,2.3787,2.3775,2.3793,2.3794,2.3791,2.3809,2.381,2.3827,2.3803,2.3804,2.3804,0,2.3625,2.364,2.3665,2.3685,2.3691,2.3702,2.3719,2.3731,2.3746,2.3751,2.3762,2.3766,2.3782,2.3776,2.3797,2.3789,2.3797,2.3802,2.3803,2.3806,2.38,2.3813,2.3832,2.3835,2.3808,2.3807,2.3807,0,2.3628,2.3655,2.3674,2.3682,2.3705,2.3713,2.3722,2.3737,2.3747,2.3761,2.3768,2.3782,2.3791,2.3802,2.381,2.3806,2.3831,2.3826,2.3836,2.3836,2.3841,2.3841,2.3863,2.3845,2.3845,2.3845,2.3844,0,2.3642,2.3658,2.3677,2.3688,2.3706,2.3717,2.3734,2.3743,2.3756,2.377,2.3775,2.3787,2.3797,2.3811,2.3817,2.3834,2.3837,2.3842,2.3844,2.3842,2.3842,2.3848,2.3847,2.3845,2.3845,2.3845,2.3845,0,2.3649,2.3663,2.3684,2.3705,2.371,2.3722,2.3739,2.3751,2.376,2.3777,2.3781,2.3795,2.3811,2.3821,2.384,2.3845,2.3864,2.3865,2.386,2.3861,2.3871,2.387,2.3898,2.3903,2.388,2.3881,2.3881,0,2.3658,2.367,2.3693,2.3704,2.3714,2.373,2.3741,2.3753,2.3764,2.3783,2.3792,2.3809,2.3823,2.3849,2.386,2.3875,2.3877,2.3885,2.3879,2.3877,2.3878,2.3878,2.388,2.3887,2.3887,2.3887,2.3887,0,2.3672,2.3679,2.3695,2.3715,2.3729,2.3744,2.3759,2.3767,2.3781,2.3793,2.3811,2.3822,2.3844,2.3861,2.3877,2.3886,2.3889,2.3889,2.3893,2.3891,2.3889,2.3892,2.3864,2.3889,2.3888,2.3888,2.3888,2.3888,2.368,2.3692,2.3712,2.373,2.3744,2.3758,2.3771,2.3783,2.3799,2.3819,2.3824,2.3843,2.3859,2.3882,2.3891,2.3906,2.3904,2.3908,2.391,2.3911,2.3912,2.3886,2.3908,2.3908,2.3908,2.3908,2.3908,0,2.3696,2.3709,2.3726,2.3749,2.3764,2.3768,2.3785,2.3797,2.3815,2.383,2.3845,2.3866,2.3883,2.3896,2.3914,2.3923,2.3925,2.3927,2.3927,2.3929,2.3912,2.3908,2.3925,2.3925,2.3925,2.3925,2.3925,2.3925,2.3705,2.3727,2.3736,2.3765,2.3777,2.3798,2.3808,2.3822,2.3834,2.3859,2.3874,2.3883,2.3898,2.3916,2.3932,2.3936,2.3942,2.3944,2.3948,2.3932,2.393,2.3928,2.3925,2.3946,2.3946,2.3965,2.3965,2.3965]}]]